Theta_e
336 337 338 337 337 338 338 338 338 338 338 337 338 337 336 336 336 335 335 334 333 334 335 334 334 334 334 334 334 335 335 334 334 334 333 332 331 331 332 332 332 332 331 332 333 335 335 335 333 332 332 331 331 331 332 331 330 330 330 330 329 329 329
335 336 336 337 337 337 337 337 337 337 336 336 336 336 336 336 335 335 334 334 333 334 335 335 334 334 334 334 334 334 335 334 334 334 332 332 332 333 333 333 332 332 331 331 332 332 333 334 334 332 331 330 330 331 332 331 331 331 329 330 329 329 329
333 334 335 335 336 336 336 336 336 336 336 336 335 335 335 335 335 335 334 334 333 334 335 335 335 334 334 334 334 334 334 334 334 334 333 332 333 333 334 334 334 333 331 331 333 332 331 332 334 332 330 331 330 330 331 331 331 331 330 330 330 330 330
331 332 333 333 334 335 336 336 336 335 335 335 334 335 334 334 333 334 334 333 333 334 335 335 335 335 334 334 334 334 334 334 334 334 333 333 333 333 334 334 334 333 332 332 333 332 331 331 332 332 330 331 331 330 331 331 331 330 330 330 330 330 330
328 329 330 332 333 333 334 334 335 335 333 332 332 333 333 333 333 333 333 333 334 334 334 335 335 335 335 334 334 334 334 334 333 333 333 333 333 333 333 333 333 333 333 333 333 333 332 331 331 330 330 331 332 331 331 332 331 331 331 331 330 330 330
326 327 328 330 332 332 331 332 333 333 333 332 332 332 332 332 333 333 333 333 333 334 334 334 334 335 335 334 334 334 334 333 332 332 333 333 334 333 333 333 334 334 333 333 333 333 333 331 330 330 330 331 331 331 332 332 331 331 331 331 330 330 330
325 326 327 329 331 331 331 331 331 331 332 332 332 332 331 331 332 332 333 332 332 333 333 334 334 334 334 334 334 334 334 333 332 332 333 334 335 334 333 334 334 335 334 333 334 333 332 331 329 329 330 330 329 329 331 333 332 331 330 331 330 331 330
324 324 326 327 328 329 330 331 331 331 332 331 331 332 332 331 330 331 332 332 332 332 332 333 333 334 334 333 334 334 334 334 333 331 332 334 335 334 333 333 333 334 333 333 333 333 332 331 330 329 329 328 328 328 328 330 332 330 330 331 331 330 330
323 323 324 324 325 327 329 330 330 330 331 331 331 331 331 330 330 330 331 331 332 332 332 332 333 333 333 333 333 333 334 334 333 333 332 332 334 335 334 334 334 333 333 333 333 333 333 331 330 329 328 328 329 330 329 330 330 330 330 330 330 330 329
322 322 322 322 323 325 325 326 327 328 329 330 330 331 331 330 330 330 330 330 331 332 332 332 333 333 333 333 334 333 334 334 334 334 333 332 333 334 334 334 334 334 334 332 332 332 332 331 330 329 328 328 328 329 330 332 330 329 329 330 329 329 328
321 321 321 321 321 321 322 323 324 325 326 328 329 329 330 330 329 330 330 330 330 330 331 332 332 332 331 331 332 332 332 333 332 333 333 332 333 333 333 334 334 334 334 332 332 332 331 331 330 329 329 328 328 328 329 331 331 328 328 329 329 328 328
320 319 319 320 320 319 319 320 321 322 324 325 326 327 329 330 329 329 329 330 330 330 330 331 331 332 330 330 329 329 330 330 330 331 332 333 333 333 333 333 334 334 334 333 332 332 332 331 330 329 329 328 328 327 328 329 331 330 328 328 328 328 328
319 318 318 318 318 318 318 318 319 320 322 323 324 325 328 329 329 329 329 330 330 330 330 330 331 331 331 329 329 329 330 330 329 331 332 332 332 333 333 333 334 333 333 333 333 333 332 331 330 330 329 329 328 328 328 328 329 330 329 328 329 328 328
317 316 317 316 317 317 317 317 318 319 319 320 321 323 325 326 328 329 330 329 329 329 329 330 330 329 330 329 329 329 328 329 330 332 333 331 331 332 332 333 333 332 332 333 333 333 332 331 331 330 329 329 328 328 329 328 329 329 329 328 329 328 328
315 315 315 315 315 315 316 316 316 317 317 318 319 320 322 324 325 327 328 329 329 329 329 329 328 328 329 329 330 328 328 330 331 331 332 331 330 330 331 332 332 330 330 331 332 333 332 331 331 331 330 330 328 329 329 329 329 328 328 329 328 328 328
314 314 314 313 314 314 314 314 314 315 315 315 317 318 319 321 322 323 326 327 328 329 328 328 328 328 329 330 330 329 329 331 332 331 331 331 330 330 331 331 331 331 331 331 331 332 331 331 331 331 330 329 328 328 329 328 327 327 327 328 328 327 327
313 313 312 312 312 313 312 312 312 313 313 313 313 315 317 319 319 320 322 324 326 327 326 325 326 327 328 330 331 330 329 329 330 329 329 330 330 331 331 331 331 332 331 331 331 331 330 330 330 330 329 329 328 329 328 327 327 327 327 327 327 327 327
312 312 311 311 311 311 311 311 311 311 311 311 311 311 313 315 315 316 317 320 322 321 320 321 321 322 323 325 327 329 328 328 328 328 327 327 329 331 332 332 332 331 330 330 330 330 330 330 330 330 329 329 328 328 328 328 328 327 327 327 325 326 327
312 312 311 311 310 310 310 310 310 309 309 309 309 308 309 311 311 312 314 316 317 317 316 316 317 318 319 322 324 326 327 328 328 328 327 326 328 331 332 332 331 330 330 330 330 330 329 330 330 329 329 329 328 328 328 329 328 327 327 327 325 325 325
311 311 311 310 310 310 309 309 309 308 308 308 307 307 307 308 308 309 311 313 314 313 312 313 314 315 317 319 321 324 326 327 327 327 327 327 329 331 332 332 331 330 330 331 330 330 329 330 330 329 329 329 328 328 328 329 329 327 327 327 325 325 325
310 310 310 310 309 308 308 308 307 307 307 306 306 306 305 305 305 306 307 309 310 309 309 309 310 311 313 316 319 321 323 326 327 327 327 327 329 330 332 332 331 330 331 331 331 330 330 330 330 330 330 329 329 329 329 329 328 327 327 326 326 325 324
309 309 309 308 308 308 307 307 306 306 305 305 305 304 304 304 304 304 304 304 305 306 306 305 306 307 309 313 316 319 320 323 326 327 327 327 327 329 331 331 331 330 331 330 331 331 330 330 330 330 330 329 328 329 329 329 327 326 326 326 325 324 324
308 308 308 307 307 307 307 306 305 305 305 304 304 303 302 302 302 302 302 302 302 303 302 302 304 306 308 310 313 316 319 321 323 325 326 326 328 330 332 330 330 330 330 330 330 330 331 331 330 330 330 329 329 329 329 328 327 326 325 325 325 324 323
308 307 307 307 307 306 306 306 305 304 304 303 303 302 301 301 301 301 301 301 301 301 300 301 303 306 308 309 311 313 317 320 322 323 325 326 327 329 331 330 329 330 329 329 329 329 329 330 330 330 330 330 329 330 329 328 327 325 325 325 325 324 323
307 307 306 306 306 306 306 306 305 304 304 303 303 302 301 301 300 300 300 300 300 300 299 300 303 306 308 310 311 313 315 318 320 322 324 325 326 327 329 330 329 328 328 328 328 329 329 329 330 329 329 329 330 329 328 328 326 324 325 325 324 323 322
306 306 306 306 305 305 305 305 305 304 303 303 303 302 301 301 300 300 300 300 300 300 299 300 302 305 308 310 313 314 315 316 319 321 323 323 325 327 328 329 328 327 327 327 328 329 329 329 329 329 329 329 329 328 327 326 326 325 325 325 324 323 322
304 304 304 305 304 304 304 305 305 304 303 303 302 302 301 301 300 300 299 299 299 299 298 299 301 305 307 310 313 315 316 317 318 320 321 322 324 326 327 327 327 327 327 327 328 328 329 329 328 328 329 329 328 328 327 327 326 327 326 325 325 325 322
302 302 302 303 303 304 304 304 304 303 303 302 302 302 301 301 300 299 299 299 298 298 298 298 301 303 306 309 313 315 317 318 319 319 320 323 324 325 326 326 327 327 327 326 327 328 328 328 327 327 327 327 327 327 327 327 327 327 327 326 326 325 323
301 301 301 302 302 302 303 303 303 303 302 302 301 301 301 300 299 299 299 298 298 298 298 299 300 302 304 307 311 313 314 316 318 318 319 321 323 324 326 327 327 327 327 326 327 327 327 326 325 326 326 325 325 326 325 325 326 325 326 326 326 325 324
300 299 300 300 301 301 301 302 302 302 301 301 301 301 300 300 299 299 298 298 298 297 297 298 299 301 302 304 308 310 311 311 313 314 314 315 317 319 322 325 327 327 327 327 327 326 326 325 325 325 324 323 323 322 322 322 323 324 326 326 325 325 324
298 298 298 299 299 300 300 300 300 299 300 300 301 300 300 300 299 299 298 298 297 297 297 298 299 299 301 302 304 306 307 308 309 310 311 311 313 314 316 320 324 325 326 327 326 326 325 325 324 324 323 322 321 320 319 320 320 321 322 322 322 322 322
298 298 298 298 298 298 299 299 298 298 298 299 299 300 299 299 299 299 298 298 297 297 297 298 299 299 299 301 302 302 304 304 304 305 306 307 309 311 312 315 319 322 323 325 325 325 324 324 324 323 322 321 319 317 317 317 315 315 317 317 318 318 317
299 298 298 298 298 297 298 298 297 297 297 297 298 299 299 298 298 298 298 298 297 297 297 297 298 299 299 300 300 301 302 301 301 301 302 303 305 307 310 312 315 318 320 322 324 325 324 324 324 323 321 321 318 314 313 313 312 313 314 314 314 314 313
299 298 298 297 297 297 297 297 297 296 296 296 296 297 298 298 297 297 297 297 297 297 297 297 298 299 299 299 300 300 301 300 299 299 300 301 302 303 305 308 311 315 318 321 323 325 324 323 323 321 320 320 317 314 312 312 312 313 312 312 311 311 311
300 299 298 297 297 297 297 297 296 296 295 295 295 296 297 297 296 296 296 296 296 297 297 297 297 298 299 299 300 300 300 300 300 300 300 300 300 300 301 303 305 310 316 319 320 322 323 322 321 320 319 317 315 313 312 311 311 311 311 310 309 309 308
300 299 298 298 297 297 296 296 296 295 295 295 295 295 296 296 296 295 295 295 296 296 297 297 297 298 298 299 299 299 300 300 300 300 300 299 299 299 300 301 302 306 310 312 313 317 320 320 319 318 317 315 314 312 311 310 310 310 309 308 307 306 306
300 299 299 298 297 297 296 296 295 295 295 295 294 295 295 295 295 295 294 294 295 296 297 298 297 297 298 298 298 299 299 300 300 300 299 299 299 300 300 300 302 304 306 306 307 310 314 315 315 314 314 313 312 311 310 309 309 308 307 306 305 304 304
Wind_Speed
9 10 10 9 10 10 9 10 11 13 13 14 15 15 15 16 19 20 20 20 21 22 22 23 24 23 22 21 22 22 21 22 24 24 23 21 20 21 24 25 22 15 11 11 10 8 4 3 6 10 14 18 19 19 20 21 20 19 20 21 22 22 21
10 11 11 11 11 10 10 11 11 12 12 12 13 13 13 15 17 18 19 20 20 21 22 22 23 23 22 22 23 24 23 24 25 26 26 25 25 24 23 24 24 20 17 15 12 10 5 4 5 4 9 14 15 19 22 21 21 20 20 21 21 22 22
15 15 14 14 13 13 12 12 11 11 11 11 10 10 11 12 14 16 17 18 18 20 22 23 22 21 22 22 23 25 26 26 26 26 26 27 27 26 25 25 23 20 18 13 11 11 6 4 5 4 10 12 10 16 22 22 22 21 21 21 21 22 23
16 16 17 17 17 17 16 14 12 10 9 9 10 9 10 10 12 14 15 16 17 18 21 22 22 20 21 22 23 24 26 27 27 27 27 27 27 26 25 25 24 23 20 14 13 15 10 6 5 4 10 15 13 15 21 23 24 23 22 22 21 22 22
15 16 17 18 18 18 18 16 13 12 10 10 10 10 11 11 11 13 14 14 15 16 17 19 21 21 21 21 22 22 24 26 26 26 27 27 27 27 26 26 26 26 25 21 18 19 17 13 9 5 8 13 11 13 19 23 24 24 23 22 23 23 21
16 17 17 18 18 18 18 17 15 15 15 13 12 12 12 11 11 12 13 13 13 14 15 16 19 21 22 21 21 22 24 25 25 25 26 28 28 28 28 27 26 26 25 23 19 18 19 18 14 7 7 11 9 9 16 22 22 22 23 23 24 24 23
17 18 18 19 19 19 19 18 17 15 15 16 15 13 12 12 11 12 12 12 11 13 15 16 18 20 22 22 23 23 24 25 25 26 27 28 28 28 28 28 27 27 25 23 21 18 17 18 17 11 8 8 7 8 12 19 21 19 20 24 25 24 23
18 19 19 20 20 20 20 19 18 16 15 15 14 13 12 12 13 13 12 12 12 12 14 15 17 18 20 23 24 24 23 23 25 26 27 27 27 27 27 28 28 27 26 25 24 22 20 19 19 19 13 7 5 6 7 13 18 19 21 24 25 26 23
18 19 20 21 20 20 20 20 19 17 15 15 14 13 14 13 13 13 12 12 13 14 15 15 17 19 20 22 24 24 23 24 24 24 25 28 29 27 26 26 26 26 26 27 27 26 24 21 19 21 20 15 9 5 4 7 10 14 21 23 23 26 25
18 19 19 21 21 20 21 21 20 19 18 17 16 14 15 15 14 14 14 13 13 15 17 17 18 21 22 23 24 25 24 24 23 23 24 27 29 28 26 25 24 24 25 25 26 26 24 22 21 21 21 21 16 8 4 6 6 10 19 23 22 25 27
18 19 18 20 20 21 21 21 21 22 21 20 19 17 16 16 16 15 15 14 13 15 16 17 18 19 20 22 24 25 24 22 21 21 23 25 27 26 26 26 24 23 24 24 24 23 22 21 22 22 21 22 22 16 10 7 8 12 20 23 24 26 29
19 20 20 20 20 21 21 21 22 22 22 21 21 20 19 18 18 17 16 15 15 15 17 17 17 18 19 20 22 22 21 21 20 21 21 23 25 24 24 25 24 23 24 24 24 23 22 22 22 23 21 19 23 27 22 13 6 12 22 24 23 26 30
21 22 22 21 21 22 22 22 22 23 23 22 22 21 21 20 20 20 18 18 17 17 17 15 16 19 20 19 19 20 19 19 20 21 21 22 25 23 23 24 25 25 24 24 25 24 23 23 21 22 22 21 25 31 29 20 8 10 22 27 25 26 30
24 25 24 24 23 22 23 23 23 23 23 23 23 23 22 21 21 21 20 20 20 19 17 15 15 18 21 21 19 17 18 18 19 20 21 22 24 24 24 25 25 26 25 25 26 25 24 24 22 22 22 22 25 27 26 23 13 9 16 24 26 27 30
27 27 26 26 24 23 24 24 23 23 23 23 23 23 23 22 23 23 21 21 22 21 18 16 16 17 18 20 19 17 17 17 18 19 21 21 23 24 25 26 27 26 26 26 26 26 25 24 22 21 22 22 23 24 24 24 19 15 14 20 27 26 27
28 28 28 27 25 24 24 24 24 23 23 24 23 23 23 22 23 24 23 22 22 22 21 20 19 17 17 17 18 18 17 17 17 20 22 23 23 23 24 26 26 26 25 25 25 25 25 24 21 20 20 18 17 17 14 13 13 13 11 17 27 27 28
29 29 29 28 26 25 25 24 24 24 23 24 24 24 24 22 23 24 24 25 25 23 23 23 20 18 17 16 17 17 16 16 19 21 24 24 23 23 24 25 26 25 25 25 25 25 23 21 20 19 17 15 13 13 10 8 11 14 8 9 18 22 28
30 29 29 28 27 25 25 25 25 24 24 24 25 26 26 24 24 25 23 25 26 25 24 23 20 19 18 16 16 17 17 17 19 22 24 24 22 23 25 26 27 26 25 25 25 24 22 20 20 20 21 20 18 17 15 15 19 22 18 16 18 18 23
29 28 28 28 27 26 26 26 26 26 25 24 25 28 29 27 27 26 24 23 23 24 26 26 24 23 21 18 16 16 17 18 18 20 23 22 21 23 25 26 26 25 25 27 26 23 20 20 21 22 22 22 21 21 20 20 21 24 25 26 25 21 21
29 27 27 27 27 27 27 27 27 27 27 25 25 28 30 30 30 29 26 23 22 24 28 30 29 27 24 20 17 15 15 16 18 19 20 20 22 25 25 24 23 23 25 26 25 23 22 22 22 21 20 21 24 24 23 23 24 25 25 25 26 25 22
28 27 27 27 27 27 27 28 28 28 28 27 26 26 27 28 31 32 30 27 23 23 30 34 33 31 28 23 19 17 14 14 17 19 20 21 24 26 26 25 24 24 25 25 25 25 25 25 23 21 20 21 23 25 25 25 25 25 25 24 24 24 21
27 27 27 27 27 27 27 27 28 28 29 29 28 28 27 26 28 31 33 32 26 25 32 37 36 32 29 25 22 20 17 14 15 16 17 20 23 24 25 26 25 24 25 26 26 26 27 28 27 25 23 22 23 26 27 27 27 26 24 22 21 21 21
26 27 27 27 27 28 27 26 27 28 29 29 29 30 30 28 27 27 30 31 29 28 33 38 37 31 28 25 23 21 19 15 14 13 13 17 20 21 22 25 26 26 26 26 26 25 25 26 27 27 27 25 27 29 29 28 27 26 24 22 21 21 20
26 26 27 27 26 27 27 26 27 28 29 29 29 30 32 32 30 27 27 27 28 30 34 39 38 33 28 26 24 22 19 16 15 14 14 15 17 18 20 23 26 27 26 24 24 24 24 24 25 26 27 26 28 30 31 29 26 26 25 23 23 24 22
26 26 26 27 26 26 26 26 27 29 29 29 29 30 32 32 32 31 29 26 27 30 36 41 40 36 31 28 24 22 19 16 14 15 15 16 17 18 20 22 23 23 22 21 21 22 23 24 24 24 25 26 27 28 29 26 24 25 26 22 22 25 26
25 25 25 25 26 26 27 26 27 28 29 28 28 30 31 31 32 33 33 30 28 29 35 43 42 37 34 30 25 22 19 16 13 13 14 15 16 17 18 19 20 20 20 19 19 20 21 22 22 23 24 25 26 25 24 25 26 27 28 25 22 25 29
26 26 26 26 26 26 27 26 26 28 29 28 28 29 30 31 32 33 33 33 31 29 35 43 43 39 36 32 26 21 17 15 12 11 11 11 13 15 15 15 17 19 19 19 19 20 21 21 21 22 23 22 22 23 23 24 24 24 28 28 23 23 29
28 29 28 28 27 27 27 26 26 27 28 29 28 28 28 30 32 32 33 34 33 32 37 43 45 42 39 34 28 22 18 14 11 9 9 8 11 13 13 13 14 17 18 19 20 20 20 23 22 20 20 19 20 22 23 23 21 19 23 28 24 21 22
28 29 28 28 29 29 27 26 26 27 27 27 28 27 28 30 31 32 33 34 35 35 38 44 45 44 42 37 30 26 24 19 12 9 8 4 4 7 9 11 14 16 17 19 22 21 19 21 20 18 18 19 20 20 20 21 20 16 18 25 26 22 17
29 30 30 30 30 30 29 28 28 28 27 26 27 27 27 29 31 32 33 34 35 35 38 43 45 44 43 40 34 30 28 24 19 16 14 10 5 1 4 9 13 15 16 18 20 20 19 18 17 17 19 20 18 14 12 13 13 11 15 22 24 22 22
33 33 32 32 31 31 31 30 29 29 28 26 26 26 27 28 30 32 33 33 34 35 38 42 43 44 43 42 38 34 29 26 24 22 19 16 13 9 4 2 8 12 15 18 18 18 18 17 18 21 22 20 15 12 11 11 11 12 15 17 18 18 21
33 33 32 32 31 31 30 29 29 29 29 27 26 25 26 27 28 30 33 34 34 35 38 41 43 43 42 41 40 37 32 28 26 25 23 22 20 18 14 7 1 5 11 16 17 17 18 19 19 21 21 18 15 15 15 14 16 19 19 18 16 14 13
31 32 31 30 30 30 29 28 29 29 29 28 27 25 25 26 28 29 31 34 35 35 37 40 42 42 41 40 39 38 37 33 29 27 27 27 27 26 23 17 10 3 3 7 10 13 17 19 18 17 18 19 17 18 18 17 20 22 22 22 20 17 17
28 30 29 28 28 29 29 28 28 29 30 29 28 27 26 26 28 28 29 32 35 36 36 38 40 41 41 39 37 36 37 36 32 30 31 32 32 31 30 26 20 11 4 4 7 11 14 15 15 14 14 16 18 19 20 21 22 23 23 24 23 21 21
24 26 28 27 27 27 28 29 29 29 30 30 30 29 27 27 28 29 28 30 33 35 36 37 38 39 39 39 37 34 33 33 33 33 34 35 35 34 33 31 26 16 9 6 8 13 14 13 14 14 13 14 17 19 20 22 24 24 24 25 24 24 24
21 21 24 26 27 27 27 28 29 30 30 31 31 30 29 27 28 29 29 30 31 33 35 36 37 37 37 38 37 35 33 32 32 34 36 36 35 35 34 33 29 22 18 16 11 14 19 18 16 15 16 17 19 19 20 23 24 24 25 25 25 26 25
20 18 19 23 25 27 27 28 29 30 31 31 31 30 29 28 28 29 29 29 30 32 33 35 36 36 36 36 35 34 34 33 33 34 35 35 35 36 36 35 33 29 27 27 25 21 23 22 21 21 21 22 22 21 22 23 24 26 27 26 25 25 24
Wind_Direction
318 318 320 319 313 305 298 294 292 289 283 282 283 279 271 261 256 256 251 246 243 242 243 242 241 240 239 238 236 235 233 227 222 218 217 208 204 210 210 212 217 214 221 218 193 173 159 179 199 205 208 209 213 210 202 203 209 211 210 209 210 211 211
5 355 346 342 338 328 317 307 299 294 289 288 289 285 275 265 261 259 256 252 246 243 243 242 241 240 241 241 238 238 234 228 226 223 220 215 211 208 204 208 213 212 221 230 210 189 176 165 177 191 198 204 217 217 209 205 208 212 210 207 206 206 208
13 8 1 358 354 345 337 328 317 307 299 296 296 295 291 281 275 270 264 259 253 248 247 245 243 243 245 247 245 243 239 232 229 226 223 222 220 213 203 200 203 205 214 223 210 201 196 176 179 187 190 191 204 215 214 210 207 210 211 206 203 204 208
15 12 7 4 1 356 347 339 335 325 312 315 314 305 303 301 291 281 271 266 263 257 254 253 251 250 250 252 253 250 244 238 232 229 226 224 222 218 211 206 206 209 212 208 201 200 194 180 175 177 194 197 199 205 210 210 207 206 208 208 206 207 210
15 12 9 4 2 1 353 343 341 333 320 323 323 314 310 310 307 300 289 280 275 269 262 261 260 259 258 258 257 254 249 245 239 232 228 225 222 219 216 214 215 218 218 214 211 206 201 196 187 177 195 197 199 206 206 207 206 204 206 208 208 209 211
15 13 11 6 1 3 358 349 344 335 326 324 317 310 305 305 310 308 300 293 287 284 279 273 267 264 264 262 258 255 252 251 246 237 230 227 224 219 216 214 215 218 219 218 216 212 208 203 193 187 188 185 192 206 201 201 205 204 206 208 207 207 212
14 14 13 8 2 2 359 354 349 339 333 332 323 310 296 296 306 302 294 293 288 285 283 278 270 263 264 263 258 254 254 254 249 242 236 229 225 221 217 215 214 218 220 217 213 211 206 201 199 196 174 168 197 212 200 198 199 199 205 209 207 205 208
12 13 14 9 3 1 1 360 356 347 340 338 334 325 311 310 316 307 294 288 284 279 274 270 267 264 265 264 257 251 251 253 248 243 238 232 228 224 220 219 219 219 221 219 216 216 215 213 213 205 183 160 199 218 206 201 199 200 205 206 207 207 204
14 12 11 6 4 5 6 5 3 358 351 344 341 339 335 332 328 317 306 294 287 286 280 270 265 263 263 261 256 250 247 247 247 246 243 238 233 228 223 222 222 223 225 224 223 223 224 226 224 211 194 180 180 194 202 204 201 207 209 203 204 208 203
20 17 12 6 5 6 6 6 5 3 2 357 351 347 345 346 341 332 325 313 298 290 284 277 271 268 266 261 257 253 247 246 249 250 247 241 236 230 226 224 224 226 228 227 226 225 226 228 224 217 206 193 189 189 185 198 199 201 204 200 200 202 200
27 22 17 13 10 7 4 3 2 1 3 3 358 354 353 355 353 344 334 324 312 299 291 288 283 278 272 264 259 256 250 247 250 251 248 244 241 235 230 227 226 228 227 225 225 223 221 225 223 222 218 207 206 209 191 182 202 197 193 195 197 198 197
32 29 23 19 16 12 8 4 3 1 2 2 359 357 355 354 353 351 343 332 323 314 307 301 293 284 277 268 261 259 256 251 249 248 246 245 245 240 234 229 226 226 225 222 223 221 220 224 223 222 221 216 222 221 201 179 193 202 193 192 196 196 194
34 33 29 25 19 15 12 9 6 3 3 1 360 359 356 350 346 345 345 341 332 322 314 308 299 293 291 284 269 261 258 253 245 242 242 241 242 240 236 232 227 226 224 221 221 223 223 224 222 222 222 221 229 224 203 184 180 194 194 193 190 189 190
36 33 31 27 22 17 14 11 8 4 2 2 2 4 1 357 351 344 340 340 337 330 320 312 307 300 298 296 286 273 265 256 247 242 237 236 238 239 237 234 232 230 227 226 227 225 224 224 221 222 221 221 229 226 205 192 183 170 186 192 186 183 185
35 33 31 27 22 19 16 13 9 6 3 2 4 7 5 5 5 0 351 341 338 337 332 323 319 312 306 302 296 288 275 263 253 244 238 235 236 237 236 235 236 235 232 231 232 230 228 225 220 220 220 222 234 234 215 199 186 168 169 183 184 180 182
35 34 32 27 23 20 17 13 11 8 5 4 6 8 7 7 8 10 10 1 349 343 340 334 328 321 315 305 293 286 275 262 252 242 239 239 237 234 231 231 233 234 233 232 233 231 229 225 221 222 220 223 246 252 224 193 180 179 173 180 185 180 178
36 34 31 28 24 21 18 15 13 11 7 7 8 9 10 10 9 10 13 12 6 359 353 349 344 334 325 310 294 286 276 266 259 250 243 241 236 232 230 230 231 231 229 229 230 227 224 223 222 223 216 215 243 257 232 201 197 200 194 183 191 188 181
35 33 31 29 26 23 21 18 17 15 11 10 11 14 16 14 13 13 11 11 13 12 9 5 2 355 345 330 310 295 282 273 271 265 254 245 237 233 233 234 235 232 229 230 229 224 222 222 221 221 217 214 227 239 229 217 211 205 195 184 189 197 192
34 33 32 30 28 25 23 22 21 19 16 14 13 17 20 20 20 18 15 17 14 8 8 8 6 3 357 346 330 311 290 276 269 264 258 253 245 238 236 236 234 231 230 231 229 223 220 222 220 220 221 219 224 231 224 214 207 200 193 186 183 192 200
34 34 33 31 29 27 25 24 24 22 20 19 17 16 19 21 24 22 19 22 16 2 3 7 4 1 358 351 341 327 302 281 268 259 253 252 247 240 238 239 236 231 230 230 228 222 217 218 217 216 220 219 218 221 220 213 204 195 190 184 182 188 197
35 34 33 32 30 28 26 25 26 25 24 23 20 16 15 16 21 23 22 23 20 6 5 8 5 359 355 349 343 335 320 297 280 265 251 244 242 240 240 241 238 236 235 234 232 228 223 221 217 212 211 209 207 209 212 208 201 195 190 185 185 186 184
37 36 35 33 31 29 28 27 28 27 26 26 23 20 18 15 17 20 20 21 21 12 9 10 7 2 356 348 341 336 331 316 295 278 261 251 245 240 241 244 243 239 237 237 236 235 232 230 225 220 214 205 200 204 208 206 199 194 190 186 184 180 174
37 36 35 35 33 31 29 29 30 29 28 27 26 24 23 21 18 16 15 17 17 13 10 8 6 4 1 353 342 335 332 323 304 288 274 264 254 242 239 245 247 240 235 235 235 235 236 237 235 233 229 220 210 207 207 206 200 194 190 187 185 180 177
36 36 34 33 32 31 29 30 32 31 29 27 26 26 25 25 23 18 14 13 12 11 8 6 5 5 2 358 348 336 330 324 312 297 282 272 267 253 240 241 243 239 234 234 234 235 237 241 240 240 239 233 224 218 213 208 202 197 192 188 188 188 189
36 36 35 32 31 29 28 31 32 31 30 28 26 26 26 26 24 21 18 14 11 10 6 4 6 6 2 359 352 340 328 319 314 305 290 277 269 260 248 238 235 236 238 238 237 235 236 239 240 238 236 232 230 228 222 217 214 208 200 193 191 194 197
33 33 33 32 32 30 29 31 32 31 29 27 26 26 25 24 23 21 20 17 14 11 7 6 8 7 4 1 355 345 335 322 310 301 294 282 268 261 253 241 233 234 238 238 237 236 234 234 236 232 228 228 231 230 225 225 227 222 212 205 203 205 205
36 34 33 32 30 29 30 32 31 30 29 27 25 25 24 23 21 20 19 17 16 14 10 9 11 10 7 4 359 353 347 336 316 298 299 291 272 262 255 246 243 242 241 238 234 234 232 229 230 227 223 226 230 227 223 223 227 227 219 213 216 219 215
43 40 37 34 29 27 29 34 33 31 30 29 27 26 24 22 20 19 19 18 18 16 13 12 14 14 10 7 7 9 6 352 324 307 314 298 267 258 250 244 246 248 249 243 234 231 229 226 226 225 222 224 222 220 222 219 216 217 213 213 220 220 208
43 39 38 35 31 27 27 32 33 31 30 30 30 28 26 23 21 20 19 19 18 18 16 16 17 17 14 11 13 20 21 12 357 349 357 350 258 243 235 233 240 245 247 240 233 233 231 224 222 219 215 212 210 211 216 217 213 206 200 208 218 214 202
44 40 39 37 34 31 30 31 31 29 27 27 28 29 27 24 23 22 20 20 19 18 18 19 20 20 19 16 16 21 25 24 24 26 28 28 24 343 220 222 230 239 244 240 235 232 227 218 214 208 199 196 197 195 192 199 203 193 189 202 214 213 214
48 45 42 39 38 36 35 34 32 30 28 26 26 27 27 25 24 23 22 21 20 19 19 21 22 23 23 21 20 21 22 24 27 28 28 27 27 29 31 211 213 221 231 234 229 219 212 207 204 199 192 187 184 169 158 165 164 157 165 179 192 198 202
50 49 47 43 42 40 39 37 34 31 31 29 29 28 28 25 23 23 23 23 23 22 21 22 24 25 25 26 26 24 24 26 25 23 22 23 25 30 34 36 130 205 217 224 223 213 202 197 194 193 188 182 170 153 151 152 136 128 131 136 147 159 156
54 52 50 48 46 43 41 38 35 32 30 30 30 30 29 27 24 23 23 23 24 24 22 22 25 27 27 28 30 30 30 30 26 23 24 24 24 26 29 31 32 35 188 203 209 200 194 195 195 192 189 180 160 142 140 135 124 123 126 124 125 125 121
57 52 51 52 50 46 43 40 35 32 30 29 29 29 28 27 25 23 22 22 23 25 25 24 26 29 30 30 32 34 35 34 30 28 29 30 29 28 27 28 27 26 51 129 165 172 181 194 196 189 185 174 155 145 141 132 125 126 125 122 121 116 111
60 52 50 53 53 49 46 44 39 35 32 30 30 29 29 27 24 23 23 22 22 24 27 27 28 30 32 32 33 35 38 38 37 35 34 34 32 31 32 33 33 34 51 93 156 170 173 185 189 183 179 166 152 148 142 132 128 125 119 117 116 111 105
63 54 49 51 53 52 49 47 44 40 36 33 32 31 29 27 24 22 22 22 22 24 27 29 30 31 33 34 35 36 40 42 43 42 41 39 37 36 38 40 42 50 65 72 95 143 157 165 169 166 163 158 151 147 142 135 132 127 121 117 112 106 103
66 61 51 47 51 53 52 50 47 43 40 37 36 33 31 28 26 23 21 21 21 23 26 29 31 33 34 35 34 35 40 44 47 48 47 45 44 44 44 45 47 55 65 65 68 91 117 131 138 139 143 146 147 146 141 135 131 126 120 115 109 106 106